Miscellaneous Local Product
Issued by NWS Hastings, NE

Home | Current Version | Previous Version | Text Only | Print | Product List | Glossary On
Versions: 1 2 3 4 5 6 7 8 9 10 11 12 13 14 15 16 17 18 19 20 21 22 23 24 25 26 27 28 29 30 31 32 33 34 35 36 37 38 39 40 41 42 43 44 45 46 47 48 49 50
318
AXUS43 KGID 190202
MISGRI

GID CWA HOURLY WEATHER ROUNDUP
NATIONAL WEATHER SERVICE HASTINGS NE
900 PM CDT WED OCT 18 2017

NOTE: "FAIR" INDICATES FEW OR NO CLOUDS BELOW 12,000 FEET WITH NO
SIGNIFICANT WEATHER AND/OR OBSTRUCTIONS TO VISIBILITY.

...SOUTH CENTRAL NEBRASKA...

CITY           SKY/WX    TMP DP  RH WIND       PRES   REMARKS
GRAND ISLAND   CLEAR     53  40  61 N7        30.07R
HASTINGS       CLEAR     54  38  54 N3        30.08R
KEARNEY        CLEAR     54  37  52 N5        30.08S
ORD            CLEAR     45  37  73 CALM      30.07R
YORK           CLEAR     55  41  58 CALM      30.05S
AURORA         CLEAR     54  39  57 N8        30.06R
LEXINGTON      CLEAR     49  38  66 CALM      30.10S
HOLDREGE       CLEAR     52  37  57 N6        30.08S
HEBRON         CLEAR     64  44  48 N5        30.03S

...NEBRASKA PANHANDLE...

CITY           SKY/WX    TMP DP  RH WIND       PRES   REMARKS
CHADRON        CLOUDY    60  28  29 S15       30.01S
ALLIANCE       CLEAR     41  30  65 SE10      30.07S
SCOTTSBLUFF    CLEAR     48  30  49 E8        30.07S
SIDNEY         CLEAR     45  29  53 SE9       30.12S

...WESTERN AND NORTH CENTRAL NEBRASKA...

CITY           SKY/WX    TMP DP  RH WIND       PRES   REMARKS
VALENTINE      CLEAR     47  31  53 S3        30.07S
AINSWORTH      CLEAR     46  37  69 S3        30.09S
ONEILL         CLEAR     52  37  56 NE3       30.08R
BROKEN BOW     CLEAR     44  36  73 N5        30.09R
IMPERIAL       CLEAR     49  32  52 SE7       30.11R
NORTH PLATTE   CLOUDY    48  36  63 E3        30.11R
MCCOOK         CLEAR     55  35  47 NE6       30.11R

...EASTERN NEBRASKA...

CITY           SKY/WX    TMP DP  RH WIND       PRES   REMARKS
NORFOLK        CLEAR     54  38  54 CALM      30.05R
SO SIOUX CITY  CLEAR     49  44  83 W3        30.04R
TEKAMAH        CLEAR     51  44  77 NW6       30.03R
COLUMBUS       CLEAR     49  41  74 NW3       30.05S
ALBION         CLEAR     50  38  64 NW3       30.07S
OMAHA EPPLEY   CLEAR     55  46  71 N7        30.02R
OFFUTT AFB     CLEAR     65  47  52 N7        30.01R
MILLARD        CLEAR     66  47  51 CALM      30.02R
LINCOLN        CLEAR     57  43  59 N6        30.04R
NEBRASKA CITY  CLEAR     62  50  65 SW5       30.01S
BEATRICE       CLEAR     56  49  77 NW8       30.02R
FALLS CITY     CLEAR     60  50  69 SE3       30.01R

...NORTHERN KANSAS...

CITY           SKY/WX    TMP DP  RH WIND       PRES   REMARKS
GOODLAND       CLEAR     53  33  46 E9        30.11R
HILL CITY      CLEAR     58  39  49 N10       30.08R
NORTON         CLEAR     50  32  50 N8        30.08R
PHILLIPSBURG   CLEAR     63  36  36 N8        30.07R
HAYS           CLOUDY    58  39  49 S5        30.05R
RUSSELL        CLEAR     66  41  40 NE6       30.02R
CONCORDIA      CLEAR     62  52  69 CALM      30.02R
SALINA         CLEAR     63  53  70 E5        30.02R
TOPEKA         CLEAR     59  52  77 CALM      30.02R



USA.gov is the U.S. government's official web portal to all federal, state and local government web resources and services.